EW2785 Weather Reports


Display with metric or nautical units.
time (UTC)temp
F
wind
direction
speed
MPH
gust
MPH
rain 1hr
in
rain 24hr
in
rain mn
in
humidity
%
barometer
mb
20260904223048 72 327 0.0 1.0 0.00 0.00 0.00 73 1009.7
20260904221548 73 295 0.0 1.0 0.00 0.00 0.00 73 1009.7
20260904220044 73 295 0.0 1.0 0.00 0.00 0.00 73 1009.7
20260904214546 73 294 0.0 1.0 0.00 0.00 0.00 72 1009.7
20260904213042 73 294 0.0 1.0 0.00 0.00 0.00 70 1009.7
20260904211541 73 294 0.0 1.0 0.00 0.00 0.00 69 1009.8
20260904210049 74 319 0.0 3.0 0.00 0.00 0.00 68 1009.9
20260904204539 74 249 0.0 5.0 0.00 0.00 0.00 68 1009.9
20260904203039 74 346 0.0 4.0 0.00 0.00 0.00 66 1009.9
20260904201550 75 298 1.0 6.0 0.00 0.00 0.00 64 1010.0
20260904200038 75 326 0.0 3.0 0.00 0.00 0.00 65 1009.9
20260904194544 75 258 0.0 3.0 0.00 0.00 0.00 66 1009.9
20260904193036 74 11 1.0 5.0 0.00 0.00 0.00 67 1009.9
20260904191537 74 283 1.0 6.0 0.00 0.00 0.00 64 1010.0
20260904190034 74 232 1.0 6.0 0.00 0.00 0.00 65 1010.1
20260904184534 74 344 1.0 6.0 0.00 0.00 0.00 64 1010.4
20260904183033 74 309 3.0 8.0 0.00 0.00 0.00 64 1010.4
20260904181533 74 304 0.0 8.0 0.00 0.00 0.00 65 1010.2
20260904180034 74 28 2.0 8.0 0.00 0.00 0.00 65 1010.3
20260904174532 74 293 1.0 5.0 0.00 0.00 0.00 64 1010.3
20260904173030 74 69 1.0 8.0 0.00 0.00 0.00 65 1010.3
20260904171534 74 154 1.0 6.0 0.00 0.00 0.00 64 1010.2
20260904170027 74 348 1.0 8.0 0.00 0.00 0.00 66 1010.2
20260904164525 73 335 1.0 7.0 0.00 0.00 0.00 67 1010.5
20260904163030 73 218 1.0 9.0 0.00 0.00 0.00 69 1010.5
20260904161522 72 253 0.0 5.0 0.00 0.00 0.00 70 1010.6
20260904160021 72 294 1.0 9.0 0.00 0.00 0.00 71 1010.9
20260904154520 72 315 2.0 9.0 0.00 0.00 0.00 69 1011.1
20260904153021 71 337 3.0 10.0 0.00 0.00 0.00 71 1011.1
20260904151516 71 317 0.0 4.0 0.00 0.00 0.00 72 1011.0
20260904150025 70 5 0.0 6.0 0.00 0.00 0.00 75 1011.2
20260904144510 69 294 1.0 8.0 0.00 0.00 0.00 78 1011.1
20260904143006 68 28 2.0 5.0 0.00 0.00 0.00 85 1011.1
20260904141503 66 24 2.0 5.0 0.00 0.00 0.00 91 1011.1
20260904140100 65 5 2.0 4.0 0.00 0.00 0.00 93 1011.1
20260904134559 64 208 1.0 2.0 0.00 0.00 0.00 93 1011.1
20260904133053 63 209 0.0 1.0 0.00 0.00 0.00 94 1011.1
20260904131553 62 209 1.0 2.0 0.00 0.00 0.00 94 1011.1
20260904130050 62 207 0.0 1.0 0.00 0.00 0.00 94 1011.1
20260904124550 61 207 0.0 1.0 0.00 0.00 0.00 94 1011.2
20260904123049 60 207 0.0 1.0 0.00 0.00 0.00 94 1011.4
20260904121549 59 207 0.0 0.0 0.00 0.00 0.00 93 1011.4
20260904120050 58 207 0.0 0.0 0.00 0.00 0.00 93 1011.4
20260904114547 58 207 0.0 0.0 0.00 0.00 0.00 93 1011.4
20260904113044 57 207 0.0 0.0 0.00 0.00 0.00 93 1011.2
20260904111543 57 207 0.0 0.0 0.00 0.00 0.00 92 1011.0
20260904110041 57 207 0.0 0.0 0.00 0.00 0.00 92 1010.8
20260904104541 57 207 0.0 0.0 0.00 0.00 0.00 92 1010.7
20260904103039 58 207 0.0 0.0 0.00 0.00 0.00 92 1010.6
20260904101538 58 207 0.0 0.0 0.00 0.00 0.00 92 1010.6
20260904100039 58 207 0.0 0.0 0.00 0.00 0.00 92 1010.4
20260904094543 58 207 0.0 0.0 0.00 0.00 0.00 92 1010.4
20260904093036 58 207 0.0 0.0 0.00 0.00 0.00 92 1010.2
20260904091535 59 207 0.0 0.0 0.00 0.00 0.00 92 1010.1
20260904090036 59 207 0.0 0.0 0.00 0.00 0.00 92 1009.9
20260904084534 59 207 0.0 0.0 0.00 0.00 0.00 92 1010.0
20260904083041 59 207 0.0 0.0 0.00 0.00 0.00 92 1010.0
20260904081531 59 207 0.0 0.0 0.00 0.00 0.00 92 1010.2
20260904080031 59 207 0.0 0.0 0.00 0.00 0.00 92 1010.1
20260904074530 59 207 0.0 0.0 0.00 0.00 0.00 92 1010.2
20260904073029 59 207 0.0 0.0 0.00 0.00 0.00 91 1010.0
20260904071528 60 207 0.0 0.0 0.00 0.00 0.00 92 1009.9
20260904070025 60 207 0.0 0.0 0.00 0.00 0.00 91 1009.9
20260904064524 60 207 0.0 0.0 0.00 0.00 0.00 92 1010.0
20260904063025 61 207 0.0 0.0 0.00 0.00 0.00 92 1010.1
20260904061521 61 207 0.0 0.0 0.00 0.00 0.00 91 1010.3
20260904060021 61 207 0.0 0.0 0.00 0.00 0.00 92 1010.6
20260904054517 61 207 0.0 0.0 0.00 0.00 0.00 91 1010.5
20260904053019 61 207 0.0 0.0 0.00 0.00 0.00 91 1010.8
20260904051514 61 207 0.0 0.0 0.00 0.00 0.00 90 1010.9
20260904050012 61 207 0.0 0.0 0.00 0.00 0.00 90 1011.0
20260904044513 62 207 0.0 0.0 0.00 0.00 0.00 90 1011.0
20260904043013 62 207 0.0 0.0 0.00 0.00 0.00 90 1011.1
20260904041509 63 207 0.0 0.0 0.00 0.00 0.00 89 1011.0
20260904040004 63 207 0.0 0.0 0.00 0.00 0.00 89 1011.2
20260904034503 63 207 0.0 0.0 0.00 0.00 0.00 89 1011.1
20260904033004 64 207 0.0 0.0 0.00 0.00 0.00 89 1011.3
20260904031503 64 207 0.0 0.0 0.00 0.00 0.00 89 1011.3
20260904030002 64 207 0.0 0.0 0.00 0.00 0.00 88 1011.4
20260904024504 65 207 0.0 0.0 0.00 0.00 0.00 88 1011.4
20260904023001 65 207 0.0 0.0 0.00 0.00 0.00 88 1011.4
20260904021501 66 207 0.0 0.0 0.00 0.00 0.00 87 1011.5
20260904020109 66 207 0.0 0.0 0.00 0.00 0.00 87 1011.4
20260904014613 67 207 0.0 0.0 0.00 0.00 0.00 86 1011.4
20260904013059 68 207 0.0 1.0 0.00 0.00 0.00 86 1011.3
20260904011559 68 205 0.0 0.0 0.00 0.00 0.00 86 1011.3
20260904010100 69 205 0.0 0.0 0.00 0.00 0.00 85 1011.4
20260904004558 70 205 0.0 0.0 0.00 0.00 0.00 84 1011.2
20260904003058 71 205 0.0 1.0 0.00 0.00 0.00 83 1011.0
20260904001556 72 205 0.0 0.0 0.00 0.00 0.00 82 1010.7
20260904000114 73 205 0.0 1.0 0.00 0.00 0.00 81 1010.3
20260903234556 74 205 0.0 0.0 0.00 0.00 0.00 78 1010.2
20260903233057 75 205 0.0 0.0 0.00 0.00 0.00 77 1009.9
20260903231556 75 205 0.0 2.0 0.00 0.00 0.00 76 1010.0
20260903230055 76 207 1.0 3.0 0.00 0.00 0.00 75 1010.1
20260903224611 77 210 0.0 1.0 0.00 0.00 0.00 75 1010.2